When you browse on this site, cookies collect data to enhance your experience and personalize the content and advertising you see.
Visit our Privacy Policy to learn more. By continuing to use the site, you agree to this use of cookies and data.
  • In Belgien
  • Länderverzeichnis
  • Für 7 Tage
  • Wassertemperatur
  • Satellitenkarten
  • Wetterkarte
  • Widgets
  • user-avatar
    Anmelden

    Stündliche Wetter Przydroze

    Heute, 18 Februar, Montag

    Zeit Temperatur Niederschläge Wind Luftdruck Luftfeuchtigkeit
    00:00 +5°C° 0 mm 2 m/S 757 mmHg 66%
    01:00 +5°C° 0 mm 2 m/S 757 mmHg 65%
    02:00 +4°C° 0 mm 2 m/S 757 mmHg 64%
    03:00 +4°C° 0 mm 2 m/S 757 mmHg 63%
    04:00 +5°C° 0 mm 1 m/S 756 mmHg 62%
    05:00 +5°C° 0 mm 1 m/S 756 mmHg 62%
    06:00 +4°C° 0 mm 1 m/S 756 mmHg 63%
    07:00 +4°C° 0 mm 1 m/S 756 mmHg 63%
    08:00 +6°C° 0 mm 1 m/S 756 mmHg 59%
    09:00 +7°C° 0 mm 1 m/S 756 mmHg 55%
    10:00 +9°C° 0 mm 1 m/S 756 mmHg 51%
    11:00 +10°C° 0 mm 1 m/S 756 mmHg 48%
    12:00 +12°C° 0 mm 1 m/S 756 mmHg 45%
    13:00 +13°C° 0 mm 1 m/S 755 mmHg 41%
    14:00 +13°C° 0 mm 1 m/S 755 mmHg 45%
    15:00 +13°C° 0 mm 1 m/S 755 mmHg 48%
    16:00 +13°C° 0 mm 1 m/S 754 mmHg 52%
    17:00 +10°C° 0 mm 2 m/S 754 mmHg 56%
    18:00 +8°C° 0 mm 2 m/S 754 mmHg 61%
    19:00 +7°C° 0 mm 2 m/S 754 mmHg 65%
    20:00 +6°C° 0 mm 2 m/S 754 mmHg 66%
    21:00 +6°C° 0 mm 2 m/S 754 mmHg 66%
    22:00 +5°C° 0 mm 2 m/S 754 mmHg 67%
    23:00 +5°C° 0 mm 2 m/S 753 mmHg 68%

    Morgen, 19 Februar, Dienstag

    Zeit Temperatur Niederschläge Wind Luftdruck Luftfeuchtigkeit
    00:00 +4°C° 0 mm 2 m/S 753 mmHg 69%
    01:00 +4°C° 0 mm 2 m/S 753 mmHg 70%
    02:00 +4°C° 0 mm 2 m/S 753 mmHg 71%
    03:00 +4°C° 0 mm 2 m/S 753 mmHg 71%
    04:00 +3°C° 0 mm 2 m/S 752 mmHg 72%
    05:00 +3°C° 0 mm 2 m/S 752 mmHg 72%
    06:00 +2°C° 0 mm 3 m/S 752 mmHg 72%
    07:00 +2°C° 0 mm 3 m/S 752 mmHg 72%
    08:00 +4°C° 0 mm 3 m/S 752 mmHg 67%
    09:00 +5°C° 0 mm 3 m/S 752 mmHg 62%
    10:00 +8°C° 0 mm 3 m/S 752 mmHg 56%
    11:00 +8°C° 0 mm 4 m/S 751 mmHg 53%
    12:00 +11°C° 0 mm 4 m/S 751 mmHg 49%
    13:00 +12°C° 0 mm 4 m/S 751 mmHg 46%
    14:00 +12°C° 0 mm 4 m/S 751 mmHg 50%
    15:00 +11°C° 0 mm 4 m/S 751 mmHg 54%
    16:00 +11°C° 0 mm 4 m/S 751 mmHg 58%
    17:00 +10°C° 0 mm 4 m/S 751 mmHg 64%
    18:00 +7°C° 0 mm 4 m/S 751 mmHg 71%
    19:00 +6°C° 0 mm 4 m/S 751 mmHg 77%
    20:00 +6°C° 0.4 mm 4 m/S 752 mmHg 80%
    21:00 +6°C° 0.4 mm 4 m/S 752 mmHg 82%
    22:00 +6°C° 0.4 mm 4 m/S 752 mmHg 85%
    23:00 +5°C° 0 mm 4 m/S 753 mmHg 85%

    übermorgen, 20 Februar, Mittwoch

    Zeit Temperatur Niederschläge Wind Luftdruck Luftfeuchtigkeit
    00:00 +4°C° 0 mm 4 m/S 753 mmHg 85%
    01:00 +4°C° 0 mm 4 m/S 753 mmHg 86%
    02:00 +4°C° 0 mm 4 m/S 753 mmHg 86%
    03:00 +3°C° 0 mm 4 m/S 753 mmHg 86%
    04:00 +3°C° 0 mm 4 m/S 754 mmHg 87%
    05:00 +3°C° 0 mm 4 m/S 754 mmHg 87%
    06:00 +3°C° 0 mm 4 m/S 754 mmHg 87%
    07:00 +3°C° 0 mm 4 m/S 754 mmHg 87%
    08:00 +3°C° 0 mm 5 m/S 755 mmHg 81%
    09:00 +5°C° 0 mm 5 m/S 755 mmHg 76%
    10:00 +5°C° 0 mm 6 m/S 755 mmHg 71%
    11:00 +5°C° 0 mm 6 m/S 755 mmHg 67%
    12:00 +7°C° 0 mm 6 m/S 755 mmHg 62%
    13:00 +8°C° 0 mm 6 m/S 755 mmHg 58%
    14:00 +8°C° 0 mm 6 m/S 755 mmHg 60%
    15:00 +8°C° 0 mm 5 m/S 755 mmHg 62%
    16:00 +7°C° 0 mm 4 m/S 755 mmHg 64%
    17:00 +7°C° 0 mm 4 m/S 756 mmHg 67%
    18:00 +7°C° 0 mm 3 m/S 756 mmHg 71%
    19:00 +7°C° 0 mm 3 m/S 756 mmHg 74%
    20:00 +5°C° 0 mm 3 m/S 756 mmHg 76%
    21:00 +5°C° 0 mm 3 m/S 757 mmHg 78%
    22:00 +4°C° 0 mm 3 m/S 757 mmHg 80%
    23:00 +4°C° 0 mm 3 m/S 757 mmHg 79%

    21 Februar, Donnerstag

    Zeit Temperatur Niederschläge Wind Luftdruck Luftfeuchtigkeit
    00:00 +4°C° 0 mm 3 m/S 757 mmHg 77%
    01:00 +4°C° 0 mm 3 m/S 757 mmHg 76%
    02:00 +4°C° 0 mm 3 m/S 757 mmHg 78%
    03:00 +4°C° 0 mm 3 m/S 757 mmHg 80%
    04:00 +3°C° 0 mm 3 m/S 757 mmHg 82%
    05:00 +4°C° 0.2 mm 3 m/S 757 mmHg 82%
    06:00 +4°C° 0.2 mm 3 m/S 757 mmHg 82%
    07:00 +4°C° 0.2 mm 4 m/S 757 mmHg 83%
    08:00 +5°C° 0 mm 4 m/S 757 mmHg 79%
    09:00 +6°C° 0 mm 4 m/S 757 mmHg 76%
    10:00 +7°C° 0 mm 5 m/S 757 mmHg 73%
    11:00 +7°C° 0.1 mm 5 m/S 757 mmHg 73%
    12:00 +8°C° 0.1 mm 5 m/S 757 mmHg 73%
    13:00 +8°C° 0.1 mm 5 m/S 757 mmHg 73%
    14:00 +8°C° 0.9 mm 5 m/S 757 mmHg 78%
    15:00 +7°C° 0.9 mm 4 m/S 757 mmHg 82%
    16:00 +7°C° 0.9 mm 3 m/S 757 mmHg 87%
    17:00 +7°C° 0.3 mm 3 m/S 757 mmHg 89%
    18:00 +7°C° 0.3 mm 3 m/S 757 mmHg 91%
    19:00 +7°C° 0.3 mm 2 m/S 758 mmHg 93%
    20:00 +7°C° 0.1 mm 2 m/S 758 mmHg 93%
    21:00 +7°C° 0.1 mm 2 m/S 758 mmHg 94%
    22:00 +7°C° 0.1 mm 2 m/S 759 mmHg 95%
    23:00 +6°C° 0 mm 2 m/S 759 mmHg 96%

    22 Februar, Freitag

    Zeit Temperatur Niederschläge Wind Luftdruck Luftfeuchtigkeit
    00:00 +6°C° 0 mm 2 m/S 760 mmHg 96%
    01:00 +6°C° 0 mm 2 m/S 760 mmHg 97%
    02:00 +5°C° 0.1 mm 3 m/S 761 mmHg 97%
    03:00 +5°C° 0.1 mm 3 m/S 761 mmHg 96%
    04:00 +5°C° 0.1 mm 3 m/S 762 mmHg 96%
    05:00 +5°C° 0 mm 3 m/S 762 mmHg 95%
    06:00 +5°C° 0 mm 4 m/S 763 mmHg 94%
    07:00 +4°C° 0 mm 4 m/S 763 mmHg 93%
    08:00 +4°C° 0 mm 4 m/S 764 mmHg 92%
    09:00 +4°C° 0 mm 4 m/S 765 mmHg 90%
    10:00 +4°C° 0 mm 3 m/S 765 mmHg 89%
    11:00 +5°C° 0 mm 3 m/S 765 mmHg 87%
    12:00 +5°C° 0 mm 3 m/S 766 mmHg 86%
    13:00 +5°C° 0 mm 3 m/S 766 mmHg 85%
    14:00 +5°C° 0 mm 3 m/S 766 mmHg 84%
    15:00 +5°C° 0 mm 3 m/S 767 mmHg 83%
    16:00 +5°C° 0 mm 3 m/S 767 mmHg 83%
    17:00 +6°C° 0 mm 2 m/S 767 mmHg 85%
    18:00 +6°C° 0 mm 2 m/S 768 mmHg 87%
    19:00 +6°C° 0 mm 1 m/S 768 mmHg 90%
    20:00 +6°C° 0 mm 1 m/S 769 mmHg 91%
    21:00 +5°C° 0 mm 1 m/S 769 mmHg 92%
    22:00 +3°C° 0 mm 0 m/S 769 mmHg 93%
    23:00 +3°C° 0 mm 0 m/S 770 mmHg 92%

    23 Februar, Samstag

    Zeit Temperatur Niederschläge Wind Luftdruck Luftfeuchtigkeit
    00:00 +3°C° 0 mm 0 m/S 770 mmHg 91%
    01:00 +3°C° 0 mm 0 m/S 770 mmHg 89%
    02:00 +2°C° 0 mm 0 m/S 770 mmHg 89%
    03:00 +2°C° 0 mm 0 m/S 770 mmHg 89%
    04:00 +2°C° 0 mm 0 m/S 770 mmHg 89%
    05:00 +2°C° 0 mm 0 m/S 770 mmHg 89%
    06:00 +1°C° 0 mm 0 m/S 770 mmHg 90%
    07:00 +1°C° 0 mm 0 m/S 770 mmHg 91%
    08:00 +3°C° 0 mm 0 m/S 770 mmHg 87%
    09:00 +4°C° 0 mm 0 m/S 770 mmHg 83%
    10:00 +7°C° 0 mm 1 m/S 770 mmHg 78%
    11:00 +8°C° 0 mm 1 m/S 770 mmHg 73%
    12:00 +9°C° 0 mm 1 m/S 770 mmHg 68%
    13:00 +10°C° 0 mm 1 m/S 769 mmHg 63%
    14:00 +10°C° 0 mm 1 m/S 769 mmHg 62%
    15:00 +10°C° 0 mm 1 m/S 769 mmHg 62%
    16:00 +10°C° 0 mm 2 m/S 768 mmHg 62%
    17:00 +10°C° 0 mm 1 m/S 768 mmHg 67%
    18:00 +8°C° 0 mm 1 m/S 768 mmHg 72%
    19:00 +7°C° 0 mm 1 m/S 768 mmHg 77%
    20:00 +6°C° 0 mm 2 m/S 768 mmHg 79%
    21:00 +6°C° 0 mm 2 m/S 768 mmHg 81%
    22:00 +5°C° 0 mm 2 m/S 768 mmHg 83%
    23:00 +5°C° 0 mm 2 m/S 768 mmHg 84%
    Mehr zeigen